Regional Weather Roundup
Issued by NWS

Home | Current Version | Previous Version | Text Only | Print | Product List | Glossary Off
Versions: 1 2 3 4 5 6 7 8 9 10 11 12 13 14 15 16 17 18 19 20 21 22 23 24 25 26 27 28 29 30 31 32 33 34 35 36 37 38 39 40 41 42 43 44 45 46 47 48 49 50

000
ASUS45 KCYS 251410
RWRWY

WYOMING REGIONAL WEATHER ROUNDUP
NATIONAL WEATHER SERVICE CHEYENNE WY
800 AM MDT FRI JUL 25 2014

NOTE:  "FAIR" INDICATES FEW OR NO CLOUDS BELOW 12,000 FEET
WITH NO SIGNIFICANT WEATHER AND/OR OBSTRUCTIONS TO VISIBILITY.

WYZ001-251500-
YELLOWSTONE NATIONAL PARK

CITY           SKY/WX    TMP DP  RH WIND       PRES   REMARKS
LK YELLOWSTONE   N/A     41  29  62 CALM      30.28S
W YELLOWSTONE  NOT AVBL

$$
WYZ002>013-054>058-071-098>099-251500-
NORTHERN WYOMING

CITY           SKY/WX    TMP DP  RH WIND       PRES   REMARKS
JACKSON        SUNNY     45  30  57 CALM      30.22R
CODY           NOT AVBL
GREYBULL       SUNNY     62  40  44 E3        30.00S
WORLAND        SUNNY     68  37  32 N3        30.02S
SHERIDAN       SUNNY     59  50  72 CALM      30.02S
BUFFALO        SUNNY     63  49  60 E8        30.07F
GILLETTE       SUNNY     63  42  46 VRB3      30.06S
HULETT         FAIR      61  45  55 MISG      30.06
NEWCASTLE      FAIR      68  36  30 CALM      30.04

$$
WYZ014>020-022>026-101>103-251500-
CENTRAL WYOMING

CITY           SKY/WX    TMP DP  RH WIND       PRES   REMARKS
BIG PINEY      SUNNY     52  28  39 CALM      30.23S
PINEDALE       SUNNY     48  34  57 NW7       30.24S
DUBOIS         FAIR      55  18  22 NW20      30.18R
LANDER         SUNNY     63  28  26 N5        30.07S
RIVERTON       SUNNY     65  45  48 N6        30.08S
CASPER         SUNNY     63  50  62 VRB3      30.10S
DOUGLAS        MOSUNNY   64  48  56 NW6       30.10F

$$
WYZ021-027>030-104>119-251500-
SOUTHERN WYOMING

CITY           SKY/WX    TMP DP  RH WIND       PRES   REMARKS
EVANSTON       SUNNY     60  38  43 CALM      30.23S
KEMMERER       SUNNY     54  34  47 NW9       30.25R
FORT BRIDGER   FAIR      66  33  29 W5        30.24F
ROCK SPRINGS   SUNNY     64  29  26 CALM      30.19S
DIXON          FAIR      67  47  49 CALM      30.23S
RAWLINS        MOSUNNY   70  44  39 SW5       30.20R
SARATOGA       FAIR      66  45  45 SE10      30.23R
LARAMIE        PTSUNNY   67  44  43 SW8       30.24S
CHEYENNE       PTSUNNY   71  50  47 E8        30.14R
TORRINGTON     MOSUNNY   67  56  67 CALM      30.05R
PINE BLUFFS    FAIR      68  52  56 N13       30.09S

$$



USA.gov is the U.S. government's official web portal to all federal, state and local government web resources and services.